Weather in Yushkovo

Russia / Mari El Republic     56°42′43″N   48°05′04″E
temp.,
°C
wind,
m/s
gust,
m/s
humid.,
%
clouds,
%
prec.,
mm/h
press.,
hPa
HPBL,
m
4 march, thu
thu400:00−5sw4995100 0.7 1001475
03:00−4wsw41195100 1.2 999532
06:00−3sw41094100 0.1 996491
09:00−2sw61193100 0.3 994720
12:00−1sw81396100 1.6 990998
15:000wnw71380100 2.6 9881174
18:00−3w71583100 0.1 9901110
21:00−5wnw6138898 0.2 994710
5 march, fri
fri500:00−9wnw499477 0.0 997250
03:00−13wnw349658 0.0 100094
06:00−16wnw23940 0.0 100120
09:00−12w23930 0.0 1003138
12:00−7wsw358844 0.0 1004491
15:00−5wsw478771 0.1 1005840
18:00−8wsw3792100 0.1 1006187
21:00−10wsw359693 0.2 1008101
6 march, sat
sat600:00−11nw239679 0.1 100954
03:00−14nnw239683 0.2 101166
06:00−17nw3493100 0.1 101379
09:00−17nw249351 0.1 1014214
12:00−13wnw348850 0.0 1014489
15:00−12wnw358674 0.0 1014669
18:00−15w229592 0.0 101420
21:00−16w229890 0.1 101420
7 march, sun
sun700:00−18w229977 0.0 101320
03:00−19sw2210077 0.1 101220
06:00−20ssw2310092 0.0 101130
09:00−16s369793 0.1 1009207
12:00−10s589092 0.0 1007491
15:00−9s6118793 0.0 1004648
18:00−8s71393100 0.4 1001836
21:00−7s61394100 1.3 997826
8 march, mon
mon800:00−7s61394100 1.3 993802
03:00−7wsw71290100 2.6 993731
06:00−10wsw61383100 0.1 994702
09:00−11sw5119299 0.1 996448
12:00−7sw5891100 0.2 997585
15:00−6sw4787100 0.2 997633
18:00−8ssw1192100 0.1 99621
21:00−10n2296100 0.1 99723